CFG2CA EDDS-LOWI

Flight info

Callsign CFG2CA
Flight time N/A
Altitude 19000
Route ABTAL4H ABTAL L173 RIXED Y161 MANAL M736 TULSI TULSI3A
Aircraft A20N/M-SDE2E3FGHIRWXY/LB1

Departure

Time 2026-05-08 08:41
Airport Stuttgart Airport (EDDS)

Arrival

Time N/A
Airport Innsbruck Airport (LOWI)
Time Latitude Longitude Altitude Speed Heading
2026-05-08 08:23 48.68811 9.19743 1292 ft 0 kts 164°
2026-05-08 08:37 48.68799 9.19748 1291 ft 4 kts 165°
2026-05-08 08:37 48.68764 9.19763 1289 ft 6 kts 157°
2026-05-08 08:37 48.68756 9.19834 1287 ft 8 kts 77°
2026-05-08 08:38 48.68758 9.19928 1288 ft 10 kts 115°
2026-05-08 08:38 48.68750 9.19945 1288 ft 0 kts 126°
2026-05-08 08:38 48.68745 9.19955 1285 ft 2 kts 127°
2026-05-08 08:39 48.68734 9.19965 1287 ft 2 kts 155°
2026-05-08 08:39 48.68690 9.19991 1286 ft 12 kts 162°
2026-05-08 08:39 48.68593 9.20059 1285 ft 17 kts 131°
2026-05-08 08:39 48.68597 9.20128 1284 ft 0 kts 75°
2026-05-08 08:40 48.68597 9.20129 1284 ft 0 kts 75°
2026-05-08 08:40 48.68597 9.20130 1284 ft 1 kts 75°
2026-05-08 08:40 48.68602 9.20157 1286 ft 11 kts 75°
2026-05-08 08:40 48.68696 9.20662 1273 ft 90 kts 73°
2026-05-08 08:41 48.68933 9.21906 1249 ft 152 kts 73°
2026-05-08 08:41 48.69240 9.23527 1749 ft 163 kts 75°
2026-05-08 08:41 48.69548 9.25259 2316 ft 181 kts 75°
2026-05-08 08:41 48.69919 9.27265 2501 ft 217 kts 75°
2026-05-08 08:42 48.70376 9.29649 2790 ft 250 kts 75°
2026-05-08 08:42 48.70872 9.32251 3612 ft 263 kts 75°
2026-05-08 08:42 48.71389 9.34926 4575 ft 266 kts 74°
2026-05-08 08:42 48.71911 9.37640 4935 ft 270 kts 74°
2026-05-08 08:43 48.72431 9.40372 4994 ft 269 kts 75°
2026-05-08 08:43 48.72947 9.43096 5008 ft 269 kts 75°
2026-05-08 08:43 48.73461 9.45820 5004 ft 269 kts 75°
2026-05-08 08:43 48.73976 9.48554 5072 ft 272 kts 75°
2026-05-08 08:44 48.74490 9.51295 6017 ft 275 kts 75°
2026-05-08 08:44 48.75017 9.54106 6994 ft 280 kts 74°
2026-05-08 08:44 48.75556 9.56974 7940 ft 285 kts 74°
2026-05-08 08:44 48.76102 9.59890 8886 ft 290 kts 74°
2026-05-08 08:45 48.76655 9.62856 9824 ft 295 kts 74°
2026-05-08 08:45 48.77225 9.65913 10434 ft 312 kts 74°
2026-05-08 08:45 48.77836 9.69198 10830 ft 333 kts 74°
2026-05-08 08:45 48.78473 9.72622 11557 ft 341 kts 74°
2026-05-08 08:46 48.79122 9.76112 12385 ft 346 kts 74°
2026-05-08 08:46 48.79778 9.79647 13223 ft 350 kts 74°
2026-05-08 08:46 48.80440 9.83223 14038 ft 355 kts 74°
2026-05-08 08:46 48.81106 9.86844 14759 ft 359 kts 74°
2026-05-08 08:47 48.81780 9.90520 15486 ft 364 kts 74°
2026-05-08 08:47 48.82461 9.94243 16203 ft 368 kts 74°
2026-05-08 08:47 48.83149 9.98004 16908 ft 373 kts 74°
2026-05-08 08:47 48.83846 10.01817 17607 ft 377 kts 74°
2026-05-08 08:48 48.84552 10.05687 18298 ft 382 kts 74°
2026-05-08 08:48 48.85100 10.09676 18909 ft 387 kts 83°
2026-05-08 08:48 48.85185 10.13769 19528 ft 390 kts 94°
2026-05-08 08:48 48.84883 10.17893 20154 ft 394 kts 98°
2026-05-08 08:49 48.84548 10.21980 20780 ft 397 kts 97°
2026-05-08 08:49 48.84210 10.26158 21396 ft 401 kts 97°
2026-05-08 08:49 48.83868 10.30384 21951 ft 405 kts 97°
2026-05-08 08:49 48.83524 10.34626 22118 ft 404 kts 98°
2026-05-08 08:50 48.82965 10.38715 22151 ft 390 kts 109°
2026-05-08 08:50 48.81922 10.42466 22150 ft 384 kts 120°
2026-05-08 08:50 48.80441 10.45811 22150 ft 381 kts 131°
2026-05-08 08:50 48.78651 10.48756 22149 ft 380 kts 135°
2026-05-08 08:51 48.76835 10.51658 22145 ft 380 kts 135°
2026-05-08 08:51 48.75020 10.54561 22141 ft 380 kts 135°
2026-05-08 08:51 48.73201 10.57467 22143 ft 380 kts 135°
2026-05-08 08:51 48.71382 10.60368 22140 ft 380 kts 135°
2026-05-08 08:52 48.69557 10.63272 22138 ft 380 kts 136°
2026-05-08 08:52 48.67740 10.66159 22073 ft 377 kts 136°
2026-05-08 08:52 48.65929 10.69036 21328 ft 374 kts 136°
2026-05-08 08:52 48.64147 10.71865 20587 ft 377 kts 135°
2026-05-08 08:53 48.62247 10.74874 19566 ft 410 kts 135°
2026-05-08 08:53 48.60251 10.78030 18529 ft 420 kts 135°